Wetterdaten: Montag, 08.02.2016
Datum Zeit Auen-Temp. Temp gefhlt Luftfeuchte Luftdruck Regen Wind Richtung Richtung Taupunkt Windben
08.02.2016 00:00 2,0 C 1,1 C 87 % 1016,5 hPa 0,0 mm 12,4 km/h (3 Bft) SW 225 0,1 C 9,6 km/h (2 Bft)
08.02.2016 00:05 2,1 C 0,9 C 87 % 1016,3 hPa 0,0 mm 12,2 km/h (2 Bft) W-SW 247 0,2 C 11,1 km/h (2 Bft)
08.02.2016 00:10 2,1 C 1,1 C 86 % 1016,3 hPa 0,0 mm 10,6 km/h (2 Bft) W-SW 247 0,0 C 7,8 km/h (2 Bft)
08.02.2016 00:15 2,0 C 1,0 C 86 % 1016,3 hPa 0,0 mm 10,6 km/h (2 Bft) SW 225 -0,1 C 4,4 km/h (1 Bft)
08.02.2016 00:20 2,0 C 1,2 C 86 % 1016,3 hPa 0,0 mm 8,3 km/h (2 Bft) SW 225 -0,1 C 7,8 km/h (2 Bft)
08.02.2016 00:25 2,1 C 1,3 C 86 % 1016,2 hPa 0,0 mm 7,5 km/h (2 Bft) S-SO 157 0,0 C 14,5 km/h (3 Bft)
08.02.2016 00:30 2,2 C 1,3 C 86 % 1016,2 hPa 0,0 mm 8,5 km/h (2 Bft) W-SW 247 0,1 C 6,5 km/h (2 Bft)
08.02.2016 00:35 2,1 C 1,3 C 86 % 1016,2 hPa 0,0 mm 8,0 km/h (2 Bft) W-SW 247 0,0 C 23,8 km/h (4 Bft)
08.02.2016 00:40 2,3 C 1,5 C 84 % 1016,2 hPa 0,0 mm 7,8 km/h (2 Bft) S-SO 157 -0,1 C 7,3 km/h (2 Bft)
08.02.2016 00:45 2,4 C 1,3 C 83 % 1015,7 hPa 0,0 mm 10,4 km/h (2 Bft) SW 225 -0,2 C 23,8 km/h (4 Bft)
08.02.2016 00:50 2,4 C 1,3 C 81 % 1015,7 hPa 0,0 mm 10,4 km/h (2 Bft) SW 225 -0,5 C 16,3 km/h (3 Bft)
08.02.2016 00:55 2,3 C 1,5 C 81 % 1015,7 hPa 0,0 mm 8,0 km/h (2 Bft) W-SW 247 -0,6 C 12,7 km/h (3 Bft)
08.02.2016 01:00 2,5 C 1,6 C 79 % 1015,7 hPa 0,0 mm 8,5 km/h (2 Bft) S 180 -0,8 C 17,1 km/h (3 Bft)
08.02.2016 01:05 2,3 C 1,4 C 79 % 1015,7 hPa 0,0 mm 8,5 km/h (2 Bft) O-SO 112 -1,0 C 4,4 km/h (1 Bft)
08.02.2016 01:10 2,3 C 1,6 C 79 % 1015,7 hPa 0,0 mm 7,0 km/h (2 Bft) W-SW 247 -1,0 C 9,6 km/h (2 Bft)
08.02.2016 01:15 2,2 C 1,7 C 79 % 1015,7 hPa 0,0 mm 5,7 km/h (1 Bft) W-SW 247 -1,1 C 8,8 km/h (2 Bft)
08.02.2016 01:20 2,3 C 1,8 C 79 % 1015,7 hPa 0,0 mm 5,4 km/h (1 Bft) SO 135 -1,0 C 0,0 km/h (0 Bft)
08.02.2016 01:25 2,4 C 1,7 C 78 % 1015,4 hPa 0,0 mm 6,0 km/h (2 Bft) W-NW 292 -1,0 C 7,5 km/h (2 Bft)
08.02.2016 01:30 2,1 C 1,8 C 78 % 1015,4 hPa 0,0 mm 3,4 km/h (1 Bft) NW 315 -1,3 C 0,0 km/h (0 Bft)
08.02.2016 01:35 2,0 C 1,7 C 78 % 1015,4 hPa 0,0 mm 1,8 km/h (1 Bft) S-SO 157 -1,4 C 0,0 km/h (0 Bft)
08.02.2016 01:40 2,3 C 1,9 C 78 % 1015,4 hPa 0,0 mm 2,6 km/h (1 Bft) S-SO 157 -1,1 C 0,0 km/h (0 Bft)
08.02.2016 01:45 2,1 C 1,8 C 79 % 1015,3 hPa 0,0 mm 3,6 km/h (1 Bft) SO 135 -1,2 C 4,4 km/h (1 Bft)
08.02.2016 01:50 2,2 C 1,8 C 78 % 1015,3 hPa 0,0 mm 2,8 km/h (1 Bft) W-SW 247 -1,2 C 0,0 km/h (0 Bft)
08.02.2016 01:55 2,0 C 1,7 C 79 % 1015,3 hPa 0,0 mm 2,3 km/h (1 Bft) SO 135 -1,2 C 0,0 km/h (0 Bft)
08.02.2016 02:00 2,0 C 1,7 C 79 % 1015,3 hPa 0,0 mm 0,8 km/h (0 Bft) O-SO 112 -1,2 C 0,0 km/h (0 Bft)
08.02.2016 02:05 1,9 C 1,6 C 79 % 1015,0 hPa 0,0 mm 0,5 km/h (0 Bft) NO 45 -1,3 C 0,0 km/h (0 Bft)
08.02.2016 02:10 2,0 C 1,6 C 79 % 1015,0 hPa 0,0 mm 1,6 km/h (1 Bft) SO 135 -1,2 C 3,4 km/h (1 Bft)
08.02.2016 02:15 2,0 C 1,7 C 79 % 1015,0 hPa 0,0 mm 1,8 km/h (1 Bft) S 180 -1,2 C 0,0 km/h (0 Bft)
08.02.2016 02:20 2,0 C 1,7 C 79 % 1015,0 hPa 0,0 mm 1,6 km/h (1 Bft) SW 225 -1,2 C 8,3 km/h (2 Bft)
08.02.2016 02:25 2,2 C 1,8 C 79 % 1014,9 hPa 0,0 mm 2,1 km/h (1 Bft) SO 135 -1,1 C 0,0 km/h (0 Bft)
08.02.2016 02:30 2,3 C 1,9 C 79 % 1014,9 hPa 0,0 mm 2,8 km/h (1 Bft) O-SO 112 -1,0 C 3,4 km/h (1 Bft)
08.02.2016 02:35 2,2 C 1,8 C 80 % 1014,9 hPa 0,0 mm 1,8 km/h (1 Bft) SO 135 -0,9 C 2,8 km/h (1 Bft)
08.02.2016 02:40 2,1 C 1,8 C 80 % 1014,9 hPa 0,0 mm 0,5 km/h (0 Bft) O-NO 67 -1,0 C 0,0 km/h (0 Bft)
08.02.2016 02:45 1,9 C 1,6 C 80 % 1014,8 hPa 0,0 mm 0,5 km/h (0 Bft) W-NW 292 -1,2 C 6,5 km/h (2 Bft)
08.02.2016 02:50 1,8 C 1,5 C 80 % 1014,8 hPa 0,0 mm 2,6 km/h (1 Bft) W 270 -1,3 C 0,0 km/h (0 Bft)
08.02.2016 02:55 1,7 C 1,4 C 81 % 1014,8 hPa 0,0 mm 2,6 km/h (1 Bft) SO 135 -1,2 C 0,0 km/h (0 Bft)
08.02.2016 03:00 1,8 C 1,5 C 82 % 1014,8 hPa 0,0 mm 0,0 km/h (0 Bft) O-SO 112 -0,9 C 0,0 km/h (0 Bft)
08.02.2016 03:05 1,7 C 1,5 C 82 % 1014,8 hPa 0,0 mm 0,0 km/h (0 Bft) O-SO 112 -1,0 C 0,0 km/h (0 Bft)
08.02.2016 03:10 1,9 C 1,6 C 83 % 1014,8 hPa 0,0 mm 0,5 km/h (0 Bft) W-SW 247 -0,7 C 10,1 km/h (2 Bft)
08.02.2016 03:15 2,2 C 1,8 C 83 % 1014,8 hPa 0,0 mm 1,8 km/h (1 Bft) SO 135 -0,4 C 3,9 km/h (1 Bft)
08.02.2016 03:20 2,2 C 1,9 C 78 % 1014,8 hPa 0,0 mm 1,6 km/h (1 Bft) SO 135 -1,2 C 0,0 km/h (0 Bft)
08.02.2016 03:25 2,2 C 1,8 C 82 % 1014,5 hPa 0,0 mm 0,3 km/h (0 Bft) SO 135 -0,5 C 0,0 km/h (0 Bft)
08.02.2016 03:30 2,0 C 1,7 C 82 % 1014,5 hPa 0,0 mm 0,3 km/h (0 Bft) O 90 -0,7 C 0,0 km/h (0 Bft)
08.02.2016 03:35 1,8 C 1,5 C 82 % 1014,5 hPa 0,0 mm 0,8 km/h (0 Bft) W-SW 247 -0,9 C 3,9 km/h (1 Bft)
08.02.2016 03:40 1,9 C 1,6 C 82 % 1014,5 hPa 0,0 mm 1,0 km/h (0 Bft) S-SO 157 -0,8 C 0,0 km/h (0 Bft)
08.02.2016 03:45 1,9 C 1,6 C 82 % 1014,4 hPa 0,0 mm 0,8 km/h (0 Bft) O-SO 112 -0,8 C 0,0 km/h (0 Bft)
08.02.2016 03:50 1,9 C 1,5 C 82 % 1014,4 hPa 0,0 mm 0,0 km/h (0 Bft) NO 45 -0,8 C 0,0 km/h (0 Bft)
08.02.2016 03:55 1,8 C 1,5 C 82 % 1014,4 hPa 0,0 mm 0,0 km/h (0 Bft) S-SO 157 -0,9 C 0,0 km/h (0 Bft)
08.02.2016 04:00 1,9 C 1,6 C 82 % 1014,4 hPa 0,0 mm 0,0 km/h (0 Bft) O-SO 112 -0,8 C 0,0 km/h (0 Bft)
08.02.2016 04:05 1,9 C 1,5 C 82 % 1014,1 hPa 0,0 mm 0,3 km/h (0 Bft) W 270 -0,8 C 3,6 km/h (1 Bft)
08.02.2016 04:10 1,8 C 1,5 C 82 % 1014,1 hPa 0,0 mm 0,3 km/h (0 Bft) O-SO 112 -0,9 C 0,0 km/h (0 Bft)
08.02.2016 04:15 1,8 C 1,5 C 82 % 1014,1 hPa 0,0 mm 0,3 km/h (0 Bft) O 90 -0,9 C 0,0 km/h (0 Bft)
08.02.2016 04:20 1,9 C 1,5 C 83 % 1014,1 hPa 0,0 mm 0,0 km/h (0 Bft) O-SO 112 -0,7 C 0,0 km/h (0 Bft)
08.02.2016 04:25 1,7 C 1,4 C 82 % 1013,8 hPa 0,0 mm 0,0 km/h (0 Bft) N-NO 22 -1,0 C 0,0 km/h (0 Bft)
08.02.2016 04:30 1,4 C 1,1 C 82 % 1013,8 hPa 0,0 mm 0,0 km/h (0 Bft) N-NO 22 -1,3 C 0,0 km/h (0 Bft)
08.02.2016 04:35 1,3 C 1,0 C 82 % 1013,8 hPa 0,0 mm 0,0 km/h (0 Bft) NO 45 -1,4 C 0,0 km/h (0 Bft)
08.02.2016 04:40 1,2 C 0,8 C 82 % 1013,8 hPa 0,0 mm 0,0 km/h (0 Bft) NO 45 -1,5 C 0,0 km/h (0 Bft)
08.02.2016 04:45 1,3 C 0,9 C 82 % 1014,0 hPa 0,0 mm 0,0 km/h (0 Bft) NO 45 -1,4 C 0,0 km/h (0 Bft)
08.02.2016 04:50 1,1 C 0,7 C 82 % 1014,0 hPa 0,0 mm 0,0 km/h (0 Bft) O-NO 67 -1,6 C 0,0 km/h (0 Bft)
08.02.2016 04:55 1,1 C 0,7 C 82 % 1014,0 hPa 0,0 mm 0,0 km/h (0 Bft) O-NO 67 -1,6 C 0,0 km/h (0 Bft)
08.02.2016 04:59 0,9 C 0,6 C 82 % 1014,0 hPa 0,0 mm 0,0 km/h (0 Bft) O-NO 67 -1,8 C 0,0 km/h (0 Bft)
08.02.2016 05:05 1,0 C 0,6 C 83 % 1013,9 hPa 0,0 mm 0,0 km/h (0 Bft) O-NO 67 -1,6 C 0,0 km/h (0 Bft)
08.02.2016 05:10 0,7 C 0,3 C 83 % 1013,9 hPa 0,0 mm 0,0 km/h (0 Bft) O-NO 67 -1,8 C 0,0 km/h (0 Bft)
08.02.2016 05:15 0,4 C 0,0 C 83 % 1013,9 hPa 0,0 mm 0,0 km/h (0 Bft) O-NO 67 -2,1 C 0,0 km/h (0 Bft)
08.02.2016 05:20 0,1 C -0,3 C 83 % 1013,9 hPa 0,0 mm 0,0 km/h (0 Bft) O-NO 67 -2,4 C 0,0 km/h (0 Bft)
08.02.2016 05:25 0,3 C -0,2 C 83 % 1013,6 hPa 0,0 mm 0,0 km/h (0 Bft) N-NO 22 -2,2 C 0,0 km/h (0 Bft)
08.02.2016 05:30 0,3 C -0,3 C 83 % 1013,6 hPa 0,0 mm 0,0 km/h (0 Bft) N-NO 22 -2,2 C 0,0 km/h (0 Bft)
08.02.2016 05:35 0,3 C -0,3 C 84 % 1013,6 hPa 0,0 mm 0,0 km/h (0 Bft) O 90 -2,1 C 0,0 km/h (0 Bft)
08.02.2016 05:40 0,3 C -0,4 C 84 % 1013,6 hPa 0,0 mm 0,0 km/h (0 Bft) O-NO 67 -2,1 C 0,0 km/h (0 Bft)
08.02.2016 05:45 0,0 C -0,6 C 84 % 1013,5 hPa 0,0 mm 0,0 km/h (0 Bft) N-NO 22 -2,4 C 0,0 km/h (0 Bft)
08.02.2016 05:50 -0,4 C -0,9 C 84 % 1013,5 hPa 0,0 mm 0,0 km/h (0 Bft) N-NO 22 -2,8 C 0,0 km/h (0 Bft)
08.02.2016 05:55 -0,4 C -1,0 C 84 % 1013,5 hPa 0,0 mm 0,0 km/h (0 Bft) O-SO 112 -2,8 C 0,0 km/h (0 Bft)
08.02.2016 06:00 -0,2 C -0,9 C 85 % 1013,5 hPa 0,0 mm 0,0 km/h (0 Bft) SO 135 -2,4 C 0,0 km/h (0 Bft)
08.02.2016 06:05 -0,4 C -1,0 C 85 % 1013,4 hPa 0,0 mm 0,0 km/h (0 Bft) O-NO 67 -2,6 C 0,0 km/h (0 Bft)
08.02.2016 06:10 -0,5 C -1,1 C 85 % 1013,4 hPa 0,0 mm 0,0 km/h (0 Bft) W 270 -2,7 C 0,0 km/h (0 Bft)
08.02.2016 06:15 -0,1 C -0,8 C 86 % 1013,4 hPa 0,0 mm 0,0 km/h (0 Bft) O-SO 112 -2,2 C 0,0 km/h (0 Bft)
08.02.2016 06:20 -0,6 C -1,1 C 86 % 1013,4 hPa 0,0 mm 0,8 km/h (0 Bft) O-SO 112 -2,6 C 0,0 km/h (0 Bft)
08.02.2016 06:25 -0,5 C -1,1 C 86 % 1013,3 hPa 0,0 mm 0,8 km/h (0 Bft) O-SO 112 -2,5 C 0,0 km/h (0 Bft)
08.02.2016 06:30 -0,6 C -1,2 C 86 % 1013,3 hPa 0,0 mm 0,0 km/h (0 Bft) O-SO 112 -2,6 C 0,0 km/h (0 Bft)
08.02.2016 06:35 -0,9 C -1,4 C 86 % 1013,3 hPa 0,0 mm 0,0 km/h (0 Bft) SO 135 -2,9 C 0,0 km/h (0 Bft)
08.02.2016 06:40 -1,1 C -1,6 C 86 % 1013,3 hPa 0,0 mm 0,0 km/h (0 Bft) O-NO 67 -3,1 C 0,0 km/h (0 Bft)
08.02.2016 06:45 -1,1 C -1,6 C 86 % 1013,1 hPa 0,0 mm 0,0 km/h (0 Bft) O-SO 112 -3,1 C 0,0 km/h (0 Bft)
08.02.2016 06:50 -1,3 C -1,8 C 86 % 1013,1 hPa 0,0 mm 0,0 km/h (0 Bft) N-NO 22 -3,3 C 0,0 km/h (0 Bft)
08.02.2016 06:55 -1,3 C -1,9 C 86 % 1013,1 hPa 0,0 mm 0,0 km/h (0 Bft) O-NO 67 -3,3 C 0,0 km/h (0 Bft)
08.02.2016 07:00 -1,6 C -2,1 C 86 % 1013,1 hPa 0,0 mm 0,0 km/h (0 Bft) N-NO 22 -3,6 C 0,0 km/h (0 Bft)
08.02.2016 07:05 -1,7 C -2,2 C 86 % 1013,0 hPa 0,0 mm 0,0 km/h (0 Bft) N-NO 22 -3,7 C 0,0 km/h (0 Bft)
08.02.2016 07:10 -1,7 C -2,2 C 86 % 1013,0 hPa 0,0 mm 0,0 km/h (0 Bft) N-NO 22 -3,7 C 0,0 km/h (0 Bft)
08.02.2016 07:15 -1,6 C -2,1 C 86 % 1013,0 hPa 0,0 mm 0,0 km/h (0 Bft) W 270 -3,6 C 0,0 km/h (0 Bft)
08.02.2016 07:20 -1,5 C -2,0 C 86 % 1013,0 hPa 0,0 mm 0,0 km/h (0 Bft) N-NO 22 -3,5 C 0,0 km/h (0 Bft)
08.02.2016 07:25 -1,6 C -2,0 C 86 % 1013,2 hPa 0,0 mm 0,0 km/h (0 Bft) O-NO 67 -3,6 C 0,0 km/h (0 Bft)
08.02.2016 07:30 -1,1 C -1,6 C 87 % 1013,2 hPa 0,0 mm 0,3 km/h (0 Bft) SW 225 -3,0 C 5,2 km/h (1 Bft)
08.02.2016 07:35 -1,1 C -1,5 C 87 % 1013,2 hPa 0,0 mm 0,3 km/h (0 Bft) S 180 -3,0 C 0,0 km/h (0 Bft)
08.02.2016 07:40 -1,1 C -1,5 C 87 % 1013,2 hPa 0,0 mm 0,3 km/h (0 Bft) NO 45 -3,0 C 0,0 km/h (0 Bft)
08.02.2016 07:45 -1,0 C -1,4 C 87 % 1013,1 hPa 0,0 mm 0,0 km/h (0 Bft) N-NW 337 -2,9 C 0,0 km/h (0 Bft)
08.02.2016 07:50 -0,5 C -1,0 C 88 % 1013,1 hPa 0,0 mm 0,3 km/h (0 Bft) NO 45 -2,2 C 3,9 km/h (1 Bft)
08.02.2016 07:55 -0,5 C -0,9 C 88 % 1013,1 hPa 0,0 mm 0,3 km/h (0 Bft) NW 315 -2,2 C 3,1 km/h (1 Bft)
08.02.2016 08:00 -0,1 C -0,6 C 88 % 1013,1 hPa 0,0 mm 1,6 km/h (1 Bft) NO 45 -1,8 C 0,0 km/h (0 Bft)
08.02.2016 08:05 0,0 C -0,3 C 83 % 1013,0 hPa 0,0 mm 2,1 km/h (1 Bft) SO 135 -2,5 C 4,7 km/h (1 Bft)
08.02.2016 08:10 0,1 C -0,3 C 89 % 1013,0 hPa 0,0 mm 1,8 km/h (1 Bft) W 270 -1,5 C 5,2 km/h (1 Bft)
08.02.2016 08:15 0,2 C -0,3 C 89 % 1013,0 hPa 0,0 mm 2,1 km/h (1 Bft) S-SO 157 -1,4 C 4,4 km/h (1 Bft)
08.02.2016 08:20 0,3 C -0,1 C 89 % 1013,0 hPa 0,0 mm 2,1 km/h (1 Bft) NW 315 -1,3 C 6,2 km/h (2 Bft)
08.02.2016 08:25 0,5 C 0,1 C 89 % 1013,0 hPa 0,0 mm 2,3 km/h (1 Bft) N-NW 337 -1,1 C 0,0 km/h (0 Bft)
08.02.2016 08:30 0,7 C 0,3 C 89 % 1013,0 hPa 0,0 mm 2,3 km/h (1 Bft) N-NO 22 -0,9 C 0,0 km/h (0 Bft)
08.02.2016 08:35 0,8 C 0,4 C 83 % 1013,0 hPa 0,0 mm 1,3 km/h (1 Bft) O-NO 67 -1,8 C 0,0 km/h (0 Bft)
08.02.2016 08:40 0,8 C 0,4 C 88 % 1013,0 hPa 0,0 mm 0,5 km/h (0 Bft) O-NO 67 -1,0 C 0,0 km/h (0 Bft)
08.02.2016 08:45 0,7 C 0,4 C 88 % 1012,8 hPa 0,0 mm 0,8 km/h (0 Bft) NW 315 -1,1 C 2,8 km/h (1 Bft)
08.02.2016 08:50 1,3 C 0,9 C 88 % 1012,8 hPa 0,0 mm 1,0 km/h (0 Bft) O-SO 112 -0,5 C 0,0 km/h (0 Bft)
08.02.2016 08:55 1,5 C 1,1 C 88 % 1012,8 hPa 0,0 mm 1,3 km/h (1 Bft) SO 135 -0,3 C 2,6 km/h (1 Bft)
08.02.2016 09:00 1,7 C 1,5 C 82 % 1012,8 hPa 0,0 mm 1,3 km/h (1 Bft) N 360 -1,0 C 4,7 km/h (1 Bft)
08.02.2016 09:05 2,0 C 1,9 C 82 % 1012,5 hPa 0,0 mm 1,3 km/h (1 Bft) NO 45 -0,7 C 0,0 km/h (0 Bft)
08.02.2016 09:10 2,4 C 2,3 C 86 % 1012,5 hPa 0,0 mm 1,8 km/h (1 Bft) O-NO 67 0,3 C 0,0 km/h (0 Bft)
08.02.2016 09:15 2,6 C 2,9 C 81 % 1012,5 hPa 0,0 mm 1,8 km/h (1 Bft) NW 315 -0,3 C 3,6 km/h (1 Bft)
08.02.2016 09:20 3,0 C 3,8 C 80 % 1012,5 hPa 0,0 mm 1,6 km/h (1 Bft) O-NO 67 -0,1 C 0,0 km/h (0 Bft)
08.02.2016 09:25 3,4 C 4,3 C 79 % 1012,4 hPa 0,0 mm 1,6 km/h (1 Bft) NW 315 0,1 C 3,9 km/h (1 Bft)
08.02.2016 09:30 4,0 C 5,2 C 79 % 1012,4 hPa 0,0 mm 2,6 km/h (1 Bft) O-NO 67 0,7 C 4,7 km/h (1 Bft)
08.02.2016 09:35 4,2 C 5,5 C 78 % 1012,4 hPa 0,0 mm 3,6 km/h (1 Bft) O-NO 67 0,7 C 5,2 km/h (1 Bft)
08.02.2016 09:40 4,5 C 5,7 C 78 % 1012,4 hPa 0,0 mm 2,8 km/h (1 Bft) O-SO 112 1,0 C 3,9 km/h (1 Bft)
08.02.2016 09:45 4,6 C 5,9 C 77 % 1012,3 hPa 0,0 mm 2,8 km/h (1 Bft) N-NO 22 0,9 C 7,8 km/h (2 Bft)
08.02.2016 09:50 4,8 C 6,4 C 76 % 1012,3 hPa 0,0 mm 2,6 km/h (1 Bft) N-NW 337 0,9 C 3,1 km/h (1 Bft)
08.02.2016 09:55 5,0 C 6,7 C 76 % 1012,3 hPa 0,0 mm 2,3 km/h (1 Bft) N 360 1,1 C 4,9 km/h (1 Bft)
08.02.2016 10:00 5,4 C 7,0 C 75 % 1012,3 hPa 0,0 mm 1,6 km/h (1 Bft) O-SO 112 1,3 C 3,6 km/h (1 Bft)
08.02.2016 10:05 5,4 C 7,0 C 75 % 1012,0 hPa 0,0 mm 2,1 km/h (1 Bft) NO 45 1,3 C 5,7 km/h (1 Bft)
08.02.2016 10:10 5,5 C 7,0 C 74 % 1012,0 hPa 0,0 mm 2,1 km/h (1 Bft) N-NW 337 1,2 C 3,4 km/h (1 Bft)
08.02.2016 10:15 5,6 C 7,2 C 74 % 1012,0 hPa 0,0 mm 1,8 km/h (1 Bft) O 90 1,3 C 3,4 km/h (1 Bft)
08.02.2016 10:20 5,9 C 7,5 C 73 % 1012,0 hPa 0,0 mm 3,9 km/h (1 Bft) W-NW 292 1,4 C 10,4 km/h (2 Bft)
08.02.2016 10:25 6,2 C 7,6 C 71 % 1012,0 hPa 0,0 mm 4,9 km/h (1 Bft) W 270 1,3 C 8,3 km/h (2 Bft)
08.02.2016 10:30 6,3 C 7,7 C 71 % 1012,0 hPa 0,0 mm 4,1 km/h (1 Bft) NW 315 1,4 C 0,0 km/h (0 Bft)
08.02.2016 10:35 6,3 C 7,7 C 70 % 1012,0 hPa 0,0 mm 2,8 km/h (1 Bft) SO 135 1,2 C 3,4 km/h (1 Bft)
08.02.2016 10:40 6,4 C 7,9 C 70 % 1012,0 hPa 0,0 mm 1,0 km/h (0 Bft) O-NO 67 1,3 C 0,0 km/h (0 Bft)
08.02.2016 10:45 6,4 C 7,9 C 70 % 1011,8 hPa 0,0 mm 0,5 km/h (0 Bft) N-NW 337 1,3 C 9,3 km/h (2 Bft)
08.02.2016 10:50 6,5 C 8,0 C 70 % 1011,8 hPa 0,0 mm 0,3 km/h (0 Bft) N-NW 337 1,4 C 3,4 km/h (1 Bft)
08.02.2016 10:55 6,6 C 8,2 C 70 % 1011,8 hPa 0,0 mm 0,5 km/h (0 Bft) O-NO 67 1,5 C 0,0 km/h (0 Bft)
08.02.2016 10:59 6,8 C 8,3 C 70 % 1011,8 hPa 0,0 mm 0,3 km/h (0 Bft) N-NO 22 1,7 C 0,0 km/h (0 Bft)
08.02.2016 11:01 6,8 C 8,3 C 70 % 1011,8 hPa 0,0 mm 0,3 km/h (0 Bft) N-NO 22 1,7 C 0,0 km/h (0 Bft)
08.02.2016 11:05 6,9 C 8,5 C 70 % 1011,4 hPa 0,0 mm 0,0 km/h (0 Bft) O-SO 112 1,8 C 0,0 km/h (0 Bft)
08.02.2016 11:10 7,0 C 8,6 C 70 % 1011,4 hPa 0,0 mm 0,3 km/h (0 Bft) NO 45 1,9 C 5,2 km/h (1 Bft)
08.02.2016 11:15 7,1 C 8,7 C 70 % 1011,4 hPa 0,0 mm 0,3 km/h (0 Bft) N-NO 22 2,0 C 0,0 km/h (0 Bft)
08.02.2016 11:20 7,3 C 9,1 C 69 % 1011,4 hPa 0,0 mm 0,3 km/h (0 Bft) O-NO 67 2,0 C 0,0 km/h (0 Bft)
08.02.2016 11:25 7,5 C 9,4 C 69 % 1011,0 hPa 0,0 mm 0,3 km/h (0 Bft) O-NO 67 2,2 C 5,4 km/h (1 Bft)
08.02.2016 11:30 7,7 C 9,4 C 68 % 1011,0 hPa 0,0 mm 3,1 km/h (1 Bft) W-NW 292 2,2 C 6,0 km/h (2 Bft)
08.02.2016 11:35 7,7 C 9,5 C 68 % 1011,0 hPa 0,0 mm 4,4 km/h (1 Bft) N-NW 337 2,2 C 4,9 km/h (1 Bft)
08.02.2016 11:40 7,9 C 9,7 C 68 % 1011,0 hPa 0,0 mm 2,3 km/h (1 Bft) O-NO 67 2,4 C 0,0 km/h (0 Bft)
08.02.2016 11:45 7,9 C 10,0 C 67 % 1010,6 hPa 0,0 mm 1,3 km/h (1 Bft) O-SO 112 2,2 C 0,0 km/h (0 Bft)
08.02.2016 11:50 7,9 C 10,4 C 67 % 1010,6 hPa 0,0 mm 1,6 km/h (1 Bft) O-NO 67 2,2 C 3,4 km/h (1 Bft)
08.02.2016 11:55 8,1 C 10,5 C 66 % 1010,6 hPa 0,0 mm 1,8 km/h (1 Bft) O-NO 67 2,1 C 4,4 km/h (1 Bft)
08.02.2016 12:00 8,3 C 10,7 C 66 % 1010,6 hPa 0,0 mm 1,8 km/h (1 Bft) N 360 2,3 C 3,6 km/h (1 Bft)
08.02.2016 12:05 8,4 C 10,8 C 66 % 1010,2 hPa 0,0 mm 1,6 km/h (1 Bft) N-NO 22 2,4 C 0,0 km/h (0 Bft)
08.02.2016 12:10 8,5 C 11,1 C 65 % 1010,2 hPa 0,0 mm 0,5 km/h (0 Bft) O-NO 67 2,3 C 0,0 km/h (0 Bft)
08.02.2016 12:15 8,6 C 11,4 C 65 % 1010,2 hPa 0,0 mm 0,0 km/h (0 Bft) O-NO 67 2,4 C 0,0 km/h (0 Bft)
08.02.2016 12:20 8,9 C 12,1 C 66 % 1010,2 hPa 0,0 mm 0,5 km/h (0 Bft) NW 315 2,9 C 0,0 km/h (0 Bft)
08.02.2016 12:25 9,1 C 12,4 C 64 % 1010,2 hPa 0,0 mm 0,8 km/h (0 Bft) NO 45 2,7 C 5,4 km/h (1 Bft)
08.02.2016 12:30 9,3 C 12,4 C 64 % 1010,2 hPa 0,0 mm 0,5 km/h (0 Bft) W-NW 292 2,8 C 0,0 km/h (0 Bft)
08.02.2016 12:35 9,1 C 12,6 C 63 % 1010,2 hPa 0,0 mm 0,5 km/h (0 Bft) W 270 2,4 C 0,0 km/h (0 Bft)
08.02.2016 12:40 8,8 C 12,0 C 62 % 1010,2 hPa 0,0 mm 0,0 km/h (0 Bft) NW 315 1,9 C 0,0 km/h (0 Bft)
08.02.2016 12:45 8,9 C 12,4 C 62 % 1009,8 hPa 0,0 mm 0,0 km/h (0 Bft) NW 315 2,0 C 2,6 km/h (1 Bft)
08.02.2016 12:50 9,6 C 13,1 C 62 % 1009,8 hPa 0,0 mm 1,8 km/h (1 Bft) NW 315 2,7 C 0,0 km/h (0 Bft)
08.02.2016 12:55 9,9 C 13,4 C 62 % 1009,8 hPa 0,0 mm 3,4 km/h (1 Bft) NW 315 3,0 C 6,7 km/h (2 Bft)
08.02.2016 13:00 10,2 C 13,4 C 61 % 1009,8 hPa 0,0 mm 5,7 km/h (1 Bft) W-NW 292 3,0 C 8,8 km/h (2 Bft)
08.02.2016 13:05 10,2 C 13,7 C 60 % 1009,4 hPa 0,0 mm 7,8 km/h (2 Bft) W-SW 247 2,8 C 7,8 km/h (2 Bft)
08.02.2016 13:10 10,6 C 14,2 C 60 % 1009,4 hPa 0,0 mm 7,8 km/h (2 Bft) W-NW 292 3,2 C 12,4 km/h (3 Bft)
08.02.2016 13:15 10,7 C 14,6 C 59 % 1009,4 hPa 0,0 mm 7,3 km/h (2 Bft) NW 315 3,0 C 9,3 km/h (2 Bft)
08.02.2016 13:20 10,8 C 15,0 C 59 % 1009,4 hPa 0,0 mm 5,7 km/h (1 Bft) W 270 3,1 C 7,8 km/h (2 Bft)
08.02.2016 13:25 10,8 C 14,5 C 58 % 1009,4 hPa 0,0 mm 5,7 km/h (1 Bft) W-NW 292 2,9 C 6,2 km/h (2 Bft)
08.02.2016 13:30 10,9 C 14,3 C 58 % 1009,4 hPa 0,0 mm 6,2 km/h (2 Bft) W 270 3,0 C 10,9 km/h (2 Bft)
08.02.2016 13:35 11,1 C 14,5 C 58 % 1009,4 hPa 0,0 mm 6,5 km/h (2 Bft) NW 315 3,2 C 9,3 km/h (2 Bft)
08.02.2016 13:40 11,2 C 14,9 C 57 % 1009,4 hPa 0,0 mm 7,5 km/h (2 Bft) W 270 3,0 C 8,3 km/h (2 Bft)
08.02.2016 13:45 11,4 C 15,2 C 56 % 1009,5 hPa 0,0 mm 8,0 km/h (2 Bft) N-NW 337 2,9 C 11,7 km/h (2 Bft)
08.02.2016 13:50 11,9 C 15,2 C 54 % 1009,5 hPa 0,0 mm 9,8 km/h (2 Bft) NW 315 2,9 C 17,6 km/h (3 Bft)
08.02.2016 13:55 12,3 C 15,2 C 54 % 1009,5 hPa 0,0 mm 10,1 km/h (2 Bft) NW 315 3,3 C 10,1 km/h (2 Bft)
08.02.2016 14:00 12,8 C 15,9 C 53 % 1009,5 hPa 0,0 mm 7,0 km/h (2 Bft) N-NW 337 3,5 C 6,0 km/h (2 Bft)
08.02.2016 14:05 13,0 C 16,4 C 52 % 1009,4 hPa 0,0 mm 6,0 km/h (2 Bft) NO 45 3,4 C 3,4 km/h (1 Bft)
08.02.2016 14:10 12,8 C 16,2 C 53 % 1009,4 hPa 0,0 mm 5,7 km/h (1 Bft) N-NW 337 3,5 C 7,0 km/h (2 Bft)
08.02.2016 14:15 12,7 C 15,7 C 52 % 1009,4 hPa 0,0 mm 4,1 km/h (1 Bft) NW 315 3,1 C 7,0 km/h (2 Bft)
08.02.2016 14:20 12,7 C 15,5 C 52 % 1009,4 hPa 0,0 mm 4,4 km/h (1 Bft) W 270 3,1 C 4,7 km/h (1 Bft)
08.02.2016 14:25 12,6 C 15,2 C 51 % 1009,6 hPa 0,0 mm 3,9 km/h (1 Bft) NW 315 2,7 C 6,0 km/h (2 Bft)
08.02.2016 14:30 12,3 C 14,5 C 51 % 1009,6 hPa 0,0 mm 3,6 km/h (1 Bft) W 270 2,5 C 5,7 km/h (1 Bft)
08.02.2016 14:35 12,1 C 14,0 C 51 % 1009,6 hPa 0,0 mm 3,4 km/h (1 Bft) NW 315 2,3 C 4,4 km/h (1 Bft)
08.02.2016 14:40 12,1 C 13,6 C 51 % 1009,6 hPa 0,0 mm 3,4 km/h (1 Bft) NW 315 2,3 C 3,9 km/h (1 Bft)
08.02.2016 14:45 12,0 C 13,5 C 51 % 1009,8 hPa 0,0 mm 4,1 km/h (1 Bft) W 270 2,2 C 7,8 km/h (2 Bft)
08.02.2016 14:50 12,1 C 13,5 C 51 % 1009,8 hPa 0,0 mm 3,1 km/h (1 Bft) N-NW 337 2,3 C 0,0 km/h (0 Bft)
08.02.2016 14:55 12,1 C 13,6 C 51 % 1009,8 hPa 0,0 mm 1,6 km/h (1 Bft) N-NW 337 2,3 C 0,0 km/h (0 Bft)
08.02.2016 15:00 12,0 C 13,7 C 51 % 1009,8 hPa 0,0 mm 0,3 km/h (0 Bft) W 270 2,2 C 0,0 km/h (0 Bft)
08.02.2016 15:05 12,0 C 13,5 C 51 % 1009,7 hPa 0,0 mm 0,8 km/h (0 Bft) W-NW 292 2,2 C 0,0 km/h (0 Bft)
08.02.2016 15:10 11,8 C 13,3 C 51 % 1009,7 hPa 0,0 mm 0,8 km/h (0 Bft) W-SW 247 2,0 C 0,0 km/h (0 Bft)
08.02.2016 15:15 11,6 C 13,1 C 52 % 1009,7 hPa 0,0 mm 0,5 km/h (0 Bft) W-SW 247 2,1 C 0,0 km/h (0 Bft)
08.02.2016 15:20 11,6 C 13,0 C 52 % 1009,7 hPa 0,0 mm 0,3 km/h (0 Bft) W-SW 247 2,1 C 0,0 km/h (0 Bft)
08.02.2016 15:25 11,6 C 13,0 C 53 % 1009,2 hPa 0,0 mm 1,6 km/h (1 Bft) SW 225 2,4 C 5,7 km/h (1 Bft)
08.02.2016 15:30 11,5 C 12,7 C 53 % 1009,2 hPa 0,0 mm 2,8 km/h (1 Bft) S-SW 202 2,3 C 4,4 km/h (1 Bft)
08.02.2016 15:35 11,3 C 12,5 C 53 % 1009,2 hPa 0,0 mm 2,6 km/h (1 Bft) O-SO 112 2,1 C 0,0 km/h (0 Bft)
08.02.2016 15:40 11,2 C 12,4 C 54 % 1009,2 hPa 0,0 mm 1,8 km/h (1 Bft) W 270 2,2 C 0,0 km/h (0 Bft)
08.02.2016 15:45 11,2 C 12,4 C 55 % 1009,4 hPa 0,0 mm 1,0 km/h (0 Bft) W 270 2,5 C 3,4 km/h (1 Bft)
08.02.2016 15:50 11,1 C 12,1 C 55 % 1009,4 hPa 0,0 mm 0,5 km/h (0 Bft) SW 225 2,4 C 3,9 km/h (1 Bft)
08.02.2016 15:55 11,0 C 11,9 C 54 % 1009,4 hPa 0,0 mm 1,6 km/h (1 Bft) SW 225 2,1 C 4,1 km/h (1 Bft)
08.02.2016 16:00 10,9 C 11,7 C 54 % 1009,4 hPa 0,0 mm 1,3 km/h (1 Bft) S-SO 157 2,0 C 0,0 km/h (0 Bft)
08.02.2016 16:05 10,7 C 11,5 C 54 % 1009,0 hPa 0,0 mm 0,5 km/h (0 Bft) W-SW 247 1,8 C 4,1 km/h (1 Bft)
08.02.2016 16:10 10,5 C 11,2 C 54 % 1009,0 hPa 0,0 mm 1,0 km/h (0 Bft) S-SW 202 1,6 C 2,6 km/h (1 Bft)
08.02.2016 16:15 10,4 C 11,0 C 54 % 1009,0 hPa 0,0 mm 2,1 km/h (1 Bft) O-SO 112 1,5 C 0,0 km/h (0 Bft)
08.02.2016 16:20 10,2 C 10,8 C 55 % 1009,0 hPa 0,0 mm 1,8 km/h (1 Bft) W-SW 247 1,6 C 0,0 km/h (0 Bft)
08.02.2016 16:25 10,0 C 10,6 C 55 % 1009,1 hPa 0,0 mm 1,6 km/h (1 Bft) W 270 1,4 C 6,5 km/h (2 Bft)
08.02.2016 16:30 10,0 C 10,4 C 55 % 1009,1 hPa 0,0 mm 1,8 km/h (1 Bft) O-SO 112 1,4 C 0,0 km/h (0 Bft)
08.02.2016 16:35 9,6 C 10,3 C 56 % 1009,1 hPa 0,0 mm 3,4 km/h (1 Bft) W-NW 292 1,3 C 8,8 km/h (2 Bft)
08.02.2016 16:40 9,5 C 9,9 C 57 % 1009,1 hPa 0,0 mm 3,4 km/h (1 Bft) O-SO 112 1,4 C 2,8 km/h (1 Bft)
08.02.2016 16:45 9,4 C 9,9 C 57 % 1008,9 hPa 0,0 mm 2,8 km/h (1 Bft) W-NW 292 1,3 C 0,0 km/h (0 Bft)
08.02.2016 16:50 9,5 C 9,8 C 57 % 1008,9 hPa 0,0 mm 1,3 km/h (1 Bft) SO 135 1,4 C 4,9 km/h (1 Bft)
08.02.2016 16:55 9,3 C 9,6 C 57 % 1008,9 hPa 0,0 mm 2,1 km/h (1 Bft) O-SO 112 1,2 C 0,0 km/h (0 Bft)
08.02.2016 17:00 9,0 C 9,2 C 57 % 1008,9 hPa 0,0 mm 1,6 km/h (1 Bft) SO 135 0,9 C 0,0 km/h (0 Bft)
08.02.2016 17:01 9,0 C 9,2 C 57 % 1008,9 hPa 0,0 mm 1,6 km/h (1 Bft) SO 135 0,9 C 0,0 km/h (0 Bft)
08.02.2016 17:05 8,9 C 8,9 C 57 % 1008,3 hPa 0,0 mm 0,5 km/h (0 Bft) O-SO 112 0,9 C 0,0 km/h (0 Bft)
08.02.2016 17:10 8,4 C 8,6 C 58 % 1008,3 hPa 0,0 mm 0,5 km/h (0 Bft) W 270 0,6 C 3,4 km/h (1 Bft)
08.02.2016 17:15 8,4 C 8,4 C 57 % 1008,3 hPa 0,0 mm 1,3 km/h (1 Bft) O 90 0,4 C 3,4 km/h (1 Bft)
08.02.2016 17:20 8,6 C 8,5 C 58 % 1008,3 hPa 0,0 mm 3,4 km/h (1 Bft) O-SO 112 0,8 C 7,3 km/h (2 Bft)
08.02.2016 17:25 8,2 C 8,2 C 58 % 1008,7 hPa 0,0 mm 3,9 km/h (1 Bft) SW 225 0,4 C 10,4 km/h (2 Bft)
08.02.2016 17:30 8,2 C 8,2 C 58 % 1008,7 hPa 0,0 mm 5,4 km/h (1 Bft) SW 225 0,4 C 6,0 km/h (2 Bft)
08.02.2016 17:35 8,1 C 8,2 C 58 % 1008,7 hPa 0,0 mm 6,2 km/h (2 Bft) N-NW 337 0,3 C 0,0 km/h (0 Bft)
08.02.2016 17:40 7,6 C 8,1 C 58 % 1008,7 hPa 0,0 mm 4,7 km/h (1 Bft) W-SW 247 -0,1 C 3,9 km/h (1 Bft)
08.02.2016 17:45 7,8 C 7,9 C 59 % 1009,2 hPa 0,0 mm 3,4 km/h (1 Bft) O-SO 112 0,3 C 4,7 km/h (1 Bft)
08.02.2016 17:50 8,2 C 8,3 C 59 % 1009,2 hPa 0,0 mm 7,0 km/h (2 Bft) W 270 0,7 C 27,7 km/h (4 Bft)
08.02.2016 17:55 9,7 C 9,4 C 55 % 1009,2 hPa 0,0 mm 13,5 km/h (3 Bft) W-NW 292 1,1 C 42,2 km/h (6 Bft)
08.02.2016 18:00 10,1 C 9,6 C 50 % 1009,2 hPa 0,0 mm 20,5 km/h (4 Bft) SW 225 0,2 C 15,3 km/h (3 Bft)
08.02.2016 18:05 10,1 C 9,7 C 49 % 1009,1 hPa 0,0 mm 18,9 km/h (3 Bft) W 270 -0,1 C 18,1 km/h (3 Bft)
08.02.2016 18:10 9,9 C 9,7 C 49 % 1009,1 hPa 0,0 mm 13,7 km/h (3 Bft) W-NW 292 -0,3 C 12,4 km/h (3 Bft)
08.02.2016 18:15 9,8 C 9,6 C 49 % 1009,1 hPa 0,0 mm 12,2 km/h (2 Bft) SW 225 -0,4 C 17,6 km/h (3 Bft)
08.02.2016 18:20 9,6 C 9,5 C 49 % 1009,1 hPa 0,0 mm 9,6 km/h (2 Bft) SW 225 -0,6 C 6,0 km/h (2 Bft)
08.02.2016 18:25 9,7 C 9,6 C 49 % 1009,3 hPa 0,0 mm 9,1 km/h (2 Bft) W 270 -0,5 C 8,3 km/h (2 Bft)
08.02.2016 18:30 10,2 C 9,9 C 48 % 1009,3 hPa 0,0 mm 10,9 km/h (2 Bft) W 270 -0,3 C 10,6 km/h (2 Bft)
08.02.2016 18:35 9,7 C 9,6 C 48 % 1009,3 hPa 0,0 mm 10,9 km/h (2 Bft) W-SW 247 -0,8 C 9,8 km/h (2 Bft)
08.02.2016 18:40 9,6 C 9,7 C 48 % 1009,3 hPa 0,0 mm 7,5 km/h (2 Bft) S-SW 202 -0,9 C 2,8 km/h (1 Bft)
08.02.2016 18:45 9,3 C 9,6 C 48 % 1009,7 hPa 0,0 mm 5,7 km/h (1 Bft) N-NO 22 -1,1 C 6,2 km/h (2 Bft)
08.02.2016 18:50 9,1 C 9,4 C 49 % 1009,7 hPa 0,0 mm 4,9 km/h (1 Bft) W-SW 247 -1,0 C 5,2 km/h (1 Bft)
08.02.2016 18:55 9,1 C 9,4 C 49 % 1009,7 hPa 0,0 mm 4,1 km/h (1 Bft) NW 315 -1,0 C 6,2 km/h (2 Bft)
08.02.2016 19:00 9,1 C 9,3 C 49 % 1009,7 hPa 0,0 mm 4,4 km/h (1 Bft) W-NW 292 -1,0 C 3,4 km/h (1 Bft)
08.02.2016 19:05 9,2 C 9,3 C 49 % 1010,5 hPa 0,0 mm 6,7 km/h (2 Bft) W-SW 247 -0,9 C 15,5 km/h (3 Bft)
08.02.2016 19:10 9,5 C 9,2 C 49 % 1010,5 hPa 0,0 mm 8,8 km/h (2 Bft) NW 315 -0,7 C 4,1 km/h (1 Bft)
08.02.2016 19:15 9,2 C 8,7 C 50 % 1010,5 hPa 0,0 mm 10,6 km/h (2 Bft) S 180 -0,7 C 15,3 km/h (3 Bft)
08.02.2016 19:20 9,3 C 8,8 C 50 % 1010,5 hPa 0,0 mm 11,9 km/h (2 Bft) W 270 -0,6 C 26,4 km/h (4 Bft)
08.02.2016 19:25 9,4 C 8,8 C 50 % 1010,5 hPa 0,0 mm 13,2 km/h (3 Bft) W 270 -0,5 C 15,3 km/h (3 Bft)
08.02.2016 19:30 9,4 C 9,0 C 50 % 1010,5 hPa 0,0 mm 14,0 km/h (3 Bft) W-SW 247 -0,5 C 15,3 km/h (3 Bft)
08.02.2016 19:35 9,4 C 9,1 C 50 % 1010,5 hPa 0,0 mm 12,4 km/h (3 Bft) W-NW 292 -0,5 C 12,4 km/h (3 Bft)
08.02.2016 19:40 9,5 C 9,2 C 50 % 1010,5 hPa 0,0 mm 11,4 km/h (2 Bft) SW 225 -0,4 C 10,4 km/h (2 Bft)
08.02.2016 19:45 9,7 C 9,4 C 49 % 1010,4 hPa 0,0 mm 11,4 km/h (2 Bft) O-SO 112 -0,5 C 14,0 km/h (3 Bft)
08.02.2016 19:50 9,4 C 9,3 C 50 % 1010,4 hPa 0,0 mm 9,1 km/h (2 Bft) S 180 -0,5 C 8,0 km/h (2 Bft)
08.02.2016 19:55 9,2 C 9,2 C 50 % 1010,4 hPa 0,0 mm 7,8 km/h (2 Bft) W-NW 292 -0,7 C 12,7 km/h (3 Bft)
08.02.2016 20:00 9,1 C 9,0 C 51 % 1010,4 hPa 0,0 mm 8,8 km/h (2 Bft) W 270 -0,5 C 10,4 km/h (2 Bft)
08.02.2016 20:05 9,2 C 8,9 C 51 % 1011,2 hPa 0,0 mm 11,1 km/h (2 Bft) W-NW 292 -0,4 C 21,2 km/h (4 Bft)
08.02.2016 20:10 8,8 C 8,6 C 52 % 1011,2 hPa 0,0 mm 12,9 km/h (3 Bft) W 270 -0,5 C 21,0 km/h (4 Bft)
08.02.2016 20:15 8,4 C 7,7 C 55 % 1011,2 hPa 0,0 mm 12,2 km/h (2 Bft) W-NW 292 -0,1 C 16,8 km/h (3 Bft)
08.02.2016 20:20 8,3 C 7,8 C 55 % 1011,2 hPa 0,0 mm 9,3 km/h (2 Bft) W 270 -0,2 C 11,9 km/h (2 Bft)
08.02.2016 20:25 8,8 C 8,1 C 54 % 1011,4 hPa 0,0 mm 11,1 km/h (2 Bft) W 270 0,0 C 17,9 km/h (3 Bft)
08.02.2016 20:30 8,5 C 8,0 C 54 % 1011,4 hPa 0,0 mm 12,2 km/h (2 Bft) W-NW 292 -0,3 C 15,0 km/h (3 Bft)
08.02.2016 20:35 8,4 C 8,2 C 54 % 1011,4 hPa 0,0 mm 7,8 km/h (2 Bft) SW 225 -0,4 C 4,9 km/h (1 Bft)
08.02.2016 20:40 8,0 C 8,1 C 55 % 1011,4 hPa 0,0 mm 3,9 km/h (1 Bft) W 270 -0,5 C 0,0 km/h (0 Bft)
08.02.2016 20:45 7,9 C 7,9 C 56 % 1012,3 hPa 0,0 mm 4,1 km/h (1 Bft) W-SW 247 -0,3 C 10,4 km/h (2 Bft)
08.02.2016 20:50 7,9 C 7,8 C 57 % 1012,3 hPa 0,0 mm 6,7 km/h (2 Bft) NW 315 -0,1 C 7,3 km/h (2 Bft)
08.02.2016 20:55 7,4 C 7,2 C 58 % 1012,3 hPa 0,0 mm 6,5 km/h (2 Bft) W-SW 247 -0,3 C 4,7 km/h (1 Bft)
08.02.2016 21:00 7,0 C 6,7 C 62 % 1012,3 hPa 0,0 mm 3,6 km/h (1 Bft) S-SO 157 0,2 C 0,0 km/h (0 Bft)
08.02.2016 21:05 6,8 C 6,5 C 60 % 1011,9 hPa 0,0 mm 2,1 km/h (1 Bft) W-SW 247 -0,4 C 2,6 km/h (1 Bft)
08.02.2016 21:10 6,6 C 6,3 C 61 % 1011,9 hPa 0,0 mm 1,8 km/h (1 Bft) NW 315 -0,4 C 0,0 km/h (0 Bft)
08.02.2016 21:15 6,4 C 6,1 C 62 % 1011,9 hPa 0,0 mm 1,3 km/h (1 Bft) W-SW 247 -0,3 C 0,0 km/h (0 Bft)
08.02.2016 21:20 6,7 C 6,2 C 66 % 1011,9 hPa 0,0 mm 1,8 km/h (1 Bft) SW 225 0,8 C 4,7 km/h (1 Bft)
08.02.2016 21:25 6,7 C 6,3 C 66 % 1012,0 hPa 0,0 mm 3,9 km/h (1 Bft) S-SW 202 0,8 C 16,1 km/h (3 Bft)
08.02.2016 21:30 7,2 C 6,5 C 64 % 1012,0 hPa 0,0 mm 10,4 km/h (2 Bft) W-NW 292 0,9 C 11,4 km/h (2 Bft)
08.02.2016 21:35 7,2 C 6,5 C 65 % 1012,0 hPa 0,0 mm 14,2 km/h (3 Bft) W 270 1,1 C 12,9 km/h (3 Bft)
08.02.2016 21:40 7,2 C 6,5 C 66 % 1012,0 hPa 0,0 mm 13,2 km/h (3 Bft) W 270 1,3 C 15,8 km/h (3 Bft)
08.02.2016 21:45 7,2 C 6,6 C 66 % 1012,4 hPa 0,0 mm 12,7 km/h (3 Bft) W-SW 247 1,3 C 15,3 km/h (3 Bft)
08.02.2016 21:50 7,2 C 6,6 C 67 % 1012,4 hPa 0,0 mm 11,9 km/h (2 Bft) W 270 1,5 C 24,3 km/h (4 Bft)
08.02.2016 21:55 6,7 C 6,1 C 69 % 1012,4 hPa 1,4 mm 11,9 km/h (2 Bft) SW 225 1,4 C 13,2 km/h (3 Bft)
08.02.2016 22:00 5,4 C 4,8 C 75 % 1012,4 hPa 0,7 mm 12,2 km/h (2 Bft) W 270 1,3 C 12,9 km/h (3 Bft)
08.02.2016 22:05 5,2 C 4,6 C 75 % 1013,2 hPa 0,0 mm 10,1 km/h (2 Bft) W 270 1,1 C 19,4 km/h (3 Bft)
08.02.2016 22:10 4,9 C 4,3 C 78 % 1013,2 hPa 0,0 mm 8,8 km/h (2 Bft) SW 225 1,4 C 8,8 km/h (2 Bft)
08.02.2016 22:15 4,9 C 4,3 C 78 % 1013,2 hPa 0,0 mm 8,8 km/h (2 Bft) W-SW 247 1,4 C 9,6 km/h (2 Bft)
08.02.2016 22:20 4,9 C 4,3 C 79 % 1013,2 hPa 0,0 mm 7,8 km/h (2 Bft) SW 225 1,6 C 9,8 km/h (2 Bft)
08.02.2016 22:25 5,0 C 4,3 C 79 % 1012,8 hPa 0,0 mm 8,3 km/h (2 Bft) SO 135 1,7 C 12,7 km/h (3 Bft)
08.02.2016 22:30 5,2 C 4,4 C 81 % 1012,8 hPa 0,0 mm 10,1 km/h (2 Bft) W-SW 247 2,2 C 6,7 km/h (2 Bft)
08.02.2016 22:35 5,3 C 4,4 C 81 % 1012,8 hPa 0,0 mm 10,9 km/h (2 Bft) SW 225 2,3 C 15,0 km/h (3 Bft)
08.02.2016 22:40 5,5 C 4,5 C 81 % 1012,8 hPa 0,0 mm 11,9 km/h (2 Bft) SW 225 2,5 C 9,3 km/h (2 Bft)
08.02.2016 22:45 5,4 C 4,5 C 80 % 1012,9 hPa 0,0 mm 11,4 km/h (2 Bft) SW 225 2,2 C 9,3 km/h (2 Bft)
08.02.2016 22:50 5,3 C 4,7 C 80 % 1012,9 hPa 0,0 mm 7,8 km/h (2 Bft) SW 225 2,1 C 6,0 km/h (2 Bft)
08.02.2016 22:55 5,1 C 4,8 C 80 % 1012,9 hPa 0,0 mm 5,4 km/h (1 Bft) S 180 1,9 C 0,0 km/h (0 Bft)
08.02.2016 23:00 4,8 C 4,6 C 81 % 1012,9 hPa 0,0 mm 3,1 km/h (1 Bft) SW 225 1,8 C 9,8 km/h (2 Bft)
08.02.2016 23:02 4,8 C 4,6 C 81 % 1012,9 hPa 0,0 mm 3,1 km/h (1 Bft) SW 225 1,8 C 9,8 km/h (2 Bft)
08.02.2016 23:05 4,8 C 4,5 C 82 % 1012,7 hPa 0,0 mm 3,4 km/h (1 Bft) SW 225 2,0 C 10,9 km/h (2 Bft)
08.02.2016 23:10 4,9 C 4,3 C 82 % 1012,7 hPa 0,0 mm 7,0 km/h (2 Bft) S 180 2,1 C 14,5 km/h (3 Bft)
08.02.2016 23:15 5,6 C 4,6 C 80 % 1012,7 hPa 0,0 mm 10,1 km/h (2 Bft) SW 225 2,4 C 17,9 km/h (3 Bft)
08.02.2016 23:20 6,0 C 5,0 C 76 % 1012,7 hPa 0,0 mm 11,9 km/h (2 Bft) SW 225 2,1 C 14,5 km/h (3 Bft)
08.02.2016 23:25 5,8 C 5,1 C 76 % 1012,2 hPa 0,0 mm 9,3 km/h (2 Bft) W-SW 247 1,9 C 3,6 km/h (1 Bft)
08.02.2016 23:30 5,3 C 5,1 C 78 % 1012,2 hPa 0,0 mm 3,1 km/h (1 Bft) O 90 1,8 C 0,0 km/h (0 Bft)
08.02.2016 23:35 5,2 C 5,0 C 78 % 1012,2 hPa 0,0 mm 2,1 km/h (1 Bft) W-SW 247 1,7 C 8,8 km/h (2 Bft)
08.02.2016 23:40 5,3 C 5,1 C 78 % 1012,2 hPa 0,0 mm 4,1 km/h (1 Bft) SW 225 1,8 C 3,9 km/h (1 Bft)
08.02.2016 23:45 5,3 C 5,1 C 78 % 1012,0 hPa 0,0 mm 3,1 km/h (1 Bft) O-SO 112 1,8 C 0,0 km/h (0 Bft)
08.02.2016 23:50 5,3 C 5,1 C 78 % 1012,0 hPa 0,0 mm 1,0 km/h (0 Bft) W 270 1,8 C 7,3 km/h (2 Bft)
08.02.2016 23:55 5,4 C 5,2 C 78 % 1012,0 hPa 0,0 mm 3,1 km/h (1 Bft) W 270 1,9 C 6,5 km/h (2 Bft)
_ Min-Zeit 07:10 07:10 18:45 17:20 - 12:45 - - 07:10 23:45
Minimum _ -1,7 C -2,2 C 48 % 1008,3 hPa - 0,0 km/h (0 Bft) - - -3,7 C 0,0 km/h (0 Bft)
_ Max-Zeit 14:05 14:05 08:30 00:00 21:55 18:00 - - 14:10 17:55
Maximum _ 13,0 C 16,4 C 89 % 1016,5 hPa 1,4 mm 20,5 km/h
SW (4 Bft)
- - 3,5 C 42,2 km/h
W-NW (6 Bft)
Durchschnitt _ 5,5 C 5,9 C 70 % 1012,0 hPa #2,1 mm 4,0 km/h (1 Bft) SW - 0,2 C 5,2 km/h (1 Bft)